Tracking 17844 objects as of 24-August-2016
HD Live streaming from Space Station
objects crossing your sky now

COSMOS 2251 DEB

Track COSMOS 2251 DEB now!
10-day predictions


NORAD ID: 34447
Int'l Code: 1993-036SQ
Perigee: 636.9 km
Apogee: 664.4 km
Inclination: 74.0 °
Period: 97.6 minutes
Semi major axis: 7021 km
RCS: 0.038 m2 (small)
Launch date: June 16, 1993
Source: Commonwealth of Independent States (former USSR) (CIS)
Launch site: PLESETSK MISSILE AND SPACE COMPLEX (PKMTR)

Note: This is SATELLITE DEBRIS
Your satellite tracking list
Your tracking list is empty





NASA's NSSDC Master Catalog

Two Line Element Set (TLE):
1 34447U 93036SQ  16235.80139770 +.00003743 +00000-0 +55260-3 0  9993
2 34447 074.0285 221.3099 0019561 116.0283 314.0190 14.75523541397520
Source of the keplerian elements: AFSPC

N2YO: 466